Starlink 32894

operational
NORAD ID: 62969 Int'l Des: 2025-029 Owner: SPXS Country: US Constellation: starlink
LEOCIRCULAR

About Starlink 32894

Description loading...

Live Position

Loading 3D Globe...

Upcoming Passes

Altitude History

Altitude vs Time

uPlot chart will show altitude changes over time

Two-Line Element Set

1 62969U 25029X 25306.47856641 .00041393 00000-0 14014-2 0 9999
2 62969 53.1591 103.1475 0001358 109.4000 250.7147 15.30210850 41848
Epoch: Nov 2, 2025 • Age: 8 hours

Current Status

Altitude 475.7 km
Velocity 7.63 km/s
Sub-Earth Point 23.29°N, 146.22°E
Launch Date Feb 11, 2025
Age 0.7 years
Type internet

Technical Details

Classification Payload
Mass 730.00 kg
Dry Mass 700.00 kg
Total Mass 730.00 kg
Length 0.30 m
Diameter 4.10 m
Span 29.00 m
Shape Box + pan
Manufacturer SPXS
Bus Type Starlink V2M
Phase Status In Orbit
Owner/State SPXS/US

Large Constellations

Loading constellations...